Weather in Jijel

Algeria     36°48′31″N   5°45′28″E
temp.,
°C
wind,
m/s
gust,
m/s
humid.,
%
clouds,
%
prec.,
mm/h
press.,
hPa
HPBL,
m
13 april, tue
tue1301:00+10ne229399 0.6 1026324
04:00+10e1293100 0.0 1025216
07:00+10ese2286100 0.0 1025330
10:00+14e236721 0.0 1025899
13:00+16nne63615 0.0 1024803
16:00+14ne4368100 0.0 1023644
19:00+10ene2283100 0.0 102367
22:00+10sse2279100 0.0 102351
14 april, wed
wed1401:00+9sse228410 0.0 102240
04:00+9sse228584 0.0 102036
07:00+11se2278100 0.0 102066
10:00+16nne216592 0.0 1019552
13:00+17nne426696 0.1 1018640
16:00+16n317495 0.8 1017500
19:00+13sw1189100 2.0 101766
22:00+13w1194100 0.4 101955
15 april, thu
thu1501:00+13se1293100 1.9 101674
04:00+12nnw1198100 1.8 101660
07:00+12n1299100 3.7 1016152
10:00+12nne2297100 1.6 1016210
13:00+12ne2397100 2.8 1015243
16:00+14ne3388100 0.2 1012452
19:00+13n2290100 0.2 1012155
22:00+12e2295100 0.9 1013170
16 april, fri
fri1601:00+12se239369 1.4 1009229
04:00+12e2294100 0.6 100879
07:00+12s019293 0.9 100794
10:00+14nw3387100 0.1 1007576
13:00+13nw2392100 1.4 1007381
16:00+13nnw3598100 3.6 1007432
19:00+12n3597100 5.7 1010604
22:00+11nnw5897100 3.4 1013833
17 april, sat
sat1701:00+11nnw3595100 5.5 1013390
04:00+11wnw469389 1.9 1012442
07:00+10wnw2486100 2.8 1013229
10:00+13nw237296 0.1 1013882
13:00+12nnw3376100 0.3 1012862
16:00+10nnw1188100 1.9 1011175
19:00+9ne1197100 13.1 1012168
22:00+7w51095100 17.2 1015995